[[{"header":{"parameterUnit":"m.s-1","parameterCategory":1,"la1":30.2991,"la2":30.254,"lo1":-89.0895,"lo2":-89.0444,"dy":0.0017,"dx":0.0017,"nx":28,"ny":28,"refTime":"2025-08-04T21:00:00:Z","depth":0,"parameterNumber":2,"parameterNumberName":"U-component_of_WINDS"},"data":[0,0,0,0,0,0,0,0,0,0,0,0,0,0,0,0,0,0,0,0,0,0,0,0,0,0,0,0,0,0,0,0,0,0,0,0,0,0,0,0,0,0,0,0,0,0,0,0,0,0,0,0,0,0,0,0,0,0,-0.8643,-0.8642,0,-0.8636,-0.8636,-0.8636,-0.863,-0.863,-0.863,-0.863,-0.8623,-0.8623,-0.8623,0,0,0,0,0,0,0,0,0,0,0,0,0,-0.8649,-0.8649,-0.8643,-0.8642,-0.8642,-0.8636,-0.8636,-0.8636,-0.863,-0.863,-0.863,-0.863,-0.8623,-0.8623,-0.8623,0,0,0,0,0,0,0,0,0,0,0,0,0,-0.8645,-0.8649,-0.8643,-0.8639,-0.8638,-0.8636,-0.8636,-0.8636,-0.863,-0.863,-0.863,-0.863,-0.8623,-0.8623,-0.8623,-0.8624,0,0,-0.8623,-0.8623,0,0,0,0,0,0,0,0,-0.8645,-0.8644,-0.8639,-0.8639,-0.8638,-0.8634,-0.8636,-0.8632,-0.863,-0.8633,-0.863,-0.863,-0.8627,-0.8626,-0.8625,-0.8624,-0.8624,-0.8623,-0.8622,-0.8622,-0.8622,0,0,0,0,0,0,0,-0.8645,-0.8645,-0.864,-0.8639,-0.8639,-0.8637,-0.8636,-0.8635,-0.8631,-0.8633,-0.8632,-0.8632,-0.8627,-0.8626,-0.8625,-0.8624,-0.8623,-0.8622,-0.8622,-0.8622,-0.8622,-0.8622,0,0,0,0,0,0,-0.8646,-0.8645,-0.864,-0.864,-0.8641,-0.8637,-0.8636,-0.8635,-0.8631,-0.863,-0.8632,-0.8631,-0.8626,-0.8625,-0.8625,-0.8626,-0.8622,-0.8622,-0.8622,-0.8622,-0.8622,-0.8622,0,0,0,0,0,0,-0.8646,-0.8646,-0.864,-0.8642,-0.8641,-0.8637,-0.8636,-0.8635,-0.8634,-0.863,-0.8629,-0.8632,-0.8626,-0.8625,-0.8624,-0.8625,-0.8622,-0.8622,-0.8622,-0.8622,-0.8622,-0.8627,0,0,0,0,0,0,-0.8646,-0.8646,-0.8647,-0.8642,-0.8641,-0.864,-0.8636,-0.8635,-0.8634,-0.8634,-0.863,-0.8629,-0.8626,-0.8625,-0.8624,-0.8625,-0.8622,-0.8622,-0.8622,-0.8622,-0.8627,-0.8628,-0.8628,0,0,0,0,0,-0.8647,-0.8649,-0.8647,-0.8646,-0.8642,-0.864,-0.864,-0.8636,-0.8634,-0.8635,-0.8632,-0.8629,-0.8625,-0.8625,-0.8624,-0.8625,-0.8622,-0.8622,-0.8622,-0.8627,-0.8627,-0.8628,0,0,0,0,0,0,-0.8653,-0.8648,-0.8646,-0.8646,-0.8644,-0.8639,-0.864,-0.8637,-0.8635,-0.8635,-0.863,-0.8629,-0.8629,-0.8627,-0.8626,-0.8625,-0.8623,-0.8623,-0.8627,-0.8627,-0.8628,-0.8628,-0.8622,0,0,0,0,0,-0.8655,-0.8654,-0.8649,-0.865,-0.8649,-0.8645,-0.8644,-0.8641,-0.8638,-0.8637,-0.8634,-0.8631,-0.8629,-0.8628,-0.8626,-0.8627,-0.8625,-0.8627,-0.8627,-0.8628,-0.8628,-0.8627,-0.8627,-0.8623,-0.8623,-0.8623,0,0,-0.8658,-0.8655,-0.8655,-0.8651,-0.8649,-0.8648,-0.8644,-0.8643,-0.8642,-0.8637,-0.8636,-0.8633,-0.863,-0.8629,-0.8629,-0.8628,-0.8629,-0.8628,-0.8628,-0.8628,-0.8627,-0.8628,-0.8628,-0.8623,-0.8623,-0.8623,0,0,-0.8663,-0.8661,-0.8661,-0.8659,-0.8655,-0.8652,-0.8652,-0.8648,-0.8646,-0.8644,-0.864,-0.8639,-0.8636,-0.8633,-0.8632,-0.8634,-0.8632,-0.8634,-0.8637,-0.8636,-0.8636,-0.8636,-0.8637,-0.8637,-0.8634,-0.8634,-0.8634,0,-0.8668,-0.8666,-0.8662,-0.8661,-0.8659,-0.8654,-0.8654,-0.8651,-0.8647,-0.8646,-0.8645,-0.864,-0.8638,-0.8636,-0.8636,-0.8636,-0.8635,-0.8634,-0.8636,-0.8637,-0.8637,-0.8637,-0.8637,-0.8634,-0.8634,-0.8634,-0.8634,0,-0.8671,-0.867,-0.867,-0.8666,-0.8664,-0.8664,-0.8659,-0.8658,-0.8655,-0.8652,-0.865,-0.8646,-0.8643,-0.8643,-0.864,-0.864,-0.8639,-0.8637,-0.8635,-0.8638,-0.8638,-0.8638,-0.8635,-0.8635,-0.8635,-0.8635,0,0,-0.8681,-0.8674,-0.8674,-0.8671,-0.8666,-0.8665,-0.8664,-0.866,-0.8659,-0.8656,-0.8655,-0.8652,-0.8649,-0.8647,-0.8644,-0.8644,-0.8645,-0.8641,-0.8641,-0.8642,-0.8644,-0.8646,-0.8646,-0.8643,-0.8643,-0.8643,-0.8644,0,-0.8685,-0.8682,-0.8678,-0.8677,-0.8675,-0.867,-0.8668,-0.8665,-0.8662,-0.866,-0.8656,-0.8654,-0.8651,-0.865,-0.8649,-0.8645,-0.8646,-0.8645,-0.8641,-0.8641,-0.8642,-0.8646,-0.8648,-0.8649,-0.8644,-0.8644,-0.8644,0,-0.8689,-0.8686,-0.8685,-0.8679,-0.8678,-0.8677,-0.8673,-0.8671,-0.8667,-0.8664,-0.8662,-0.8658,-0.8656,-0.8654,-0.865,-0.865,-0.8648,-0.8646,-0.8646,-0.8645,-0.8643,-0.8645,-0.865,-0.865,-0.8645,-0.8645,-0.8645,0,-0.8696,-0.8691,-0.8689,-0.8688,-0.8681,-0.868,-0.8677,-0.8673,-0.8671,-0.8667,-0.8666,-0.8662,-0.866,-0.8657,-0.8653,-0.8651,-0.8649,-0.8647,-0.8647,-0.8647,-0.8647,-0.8647,-0.8651,-0.8646,-0.8646,-0.8646,-0.8646,0,-0.87,-0.8699,-0.8692,-0.8691,-0.8689,-0.8684,-0.8683,-0.868,-0.8676,-0.8673,-0.8669,-0.8667,-0.8661,-0.8658,-0.8654,-0.8652,-0.8651,-0.8649,-0.8648,-0.8649,-0.8649,-0.8648,-0.8647,-0.8646,-0.8646,-0.8646,-0.8646,0,-0.8707,-0.8702,-0.87,-0.8694,-0.8692,-0.8691,-0.8686,-0.8684,-0.868,-0.8678,-0.8677,-0.8671,-0.8667,-0.8662,-0.8657,-0.8655,-0.8652,-0.8651,-0.8654,-0.8653,-0.8653,-0.8653,-0.8656,-0.8656,-0.8652,-0.8652,-0.8652,0,-0.871,-0.871,-0.8703,-0.8701,-0.8698,-0.8695,-0.8693,-0.8687,-0.8685,-0.868,-0.8679,-0.8675,-0.8671,-0.8665,-0.8661,-0.8656,-0.8655,-0.8656,-0.8654,-0.8655,-0.8654,-0.8654,-0.8654,-0.8656,-0.8656,-0.8656,-0.8656,0,-0.8716,-0.8714,-0.871,-0.8706,-0.8703,-0.87,-0.8696,-0.8694,-0.8688,-0.8686,-0.8682,-0.8679,-0.8673,-0.8669,-0.8664,-0.8661,-0.8657,-0.8657,-0.8657,-0.8658,-0.8659,-0.8658,-0.8654,-0.8657,-0.8657,-0.8657,-0.8657,-0.8657,-0.8721,-0.872,-0.8714,-0.8711,-0.8707,-0.8703,-0.8701,-0.8697,-0.8694,-0.8689,-0.8685,-0.8681,-0.8676,-0.8669,-0.8666,-0.8663,-0.8661,-0.8661,-0.8661,-0.8661,-0.8661,-0.866,-0.8662,-0.8662,-0.8662,-0.8662,-0.8662,0,-0.8726,-0.8722,-0.8719,-0.8713,-0.871,-0.8707,-0.8702,-0.87,-0.8696,-0.8692,-0.8688,-0.8683,-0.8679,-0.8673,-0.8669,-0.8667,-0.8665,-0.8666,-0.8666,-0.8665,-0.8663,-0.8663,-0.8667,-0.8667,-0.8667,-0.8667,-0.8667,-0.8667,-0.8728,-0.8726,-0.8722,-0.8717,-0.8713,-0.8709,-0.8707,-0.8703,-0.8699,-0.8694,-0.869,-0.8687,-0.8681,-0.8676,-0.8672,-0.867,-0.8669,-0.867,-0.8668,-0.8666,-0.8665,-0.8665,-0.8665,-0.8669,-0.8669,-0.867,-0.867,-0.867]},{"header":{"parameterUnit":"m.s-1","parameterCategory":1,"la1":30.2991,"la2":30.254,"lo1":-89.0895,"lo2":-89.0444,"dy":0.0017,"dx":0.0017,"nx":28,"ny":28,"refTime":"2025-08-04T21:00:00:Z","depth":0,"parameterNumber":3,"parameterNumberName":"V-component_of_WINDS"},"data":[0,0,0,0,0,0,0,0,0,0,0,0,0,0,0,0,0,0,0,0,0,0,0,0,0,0,0,0,0,0,0,0,0,0,0,0,0,0,0,0,0,0,0,0,0,0,0,0,0,0,0,0,0,0,0,0,0,0,0.9255,0.9254,0,0.9168,0.9167,0.9166,0.9096,0.9095,0.9094,0.9094,0.9001,0.8999,0.8997,0,0,0,0,0,0,0,0,0,0,0,0,0,0.936,0.9358,0.9255,0.9254,0.9253,0.9168,0.9167,0.9165,0.9096,0.9095,0.9094,0.9093,0.9001,0.8999,0.8997,0,0,0,0,0,0,0,0,0,0,0,0,0,0.9298,0.9358,0.9256,0.9208,0.9203,0.9168,0.9167,0.9165,0.9096,0.9095,0.9094,0.9093,0.9002,0.8999,0.8997,0.9001,0,0,0.8988,0.8987,0,0,0,0,0,0,0,0,0.9301,0.9294,0.9216,0.9211,0.9206,0.9142,0.9169,0.911,0.9096,0.9137,0.9094,0.9092,0.9048,0.9042,0.9027,0.8996,0.8992,0.8988,0.8986,0.8985,0.8985,0,0,0,0,0,0,0,0.9306,0.9297,0.922,0.9215,0.9209,0.9191,0.9181,0.9158,0.9099,0.9133,0.9128,0.9118,0.9045,0.903,0.9025,0.8991,0.8988,0.8986,0.8984,0.8983,0.8959,0.896,0,0,0,0,0,0,0.9318,0.9301,0.9223,0.9218,0.9252,0.919,0.9178,0.9163,0.9099,0.9089,0.9119,0.9116,0.9035,0.9028,0.9021,0.9022,0.8985,0.8983,0.8981,0.8958,0.8959,0.896,0,0,0,0,0,0,0.932,0.9311,0.9227,0.9258,0.9246,0.9189,0.9172,0.9162,0.9147,0.9089,0.9078,0.9115,0.9034,0.9025,0.9007,0.9017,0.8982,0.8979,0.8956,0.8958,0.8959,0.9023,0,0,0,0,0,0,0.9324,0.9313,0.9314,0.9259,0.9245,0.9215,0.9173,0.9161,0.9143,0.9137,0.9082,0.9072,0.9033,0.9011,0.9004,0.9013,0.8977,0.8955,0.8957,0.8959,0.9019,0.9026,0.9032,0,0,0,0,0,0.9327,0.9335,0.9315,0.9306,0.9245,0.9215,0.9207,0.9163,0.9144,0.9145,0.9108,0.9074,0.9018,0.901,0.9001,0.901,0.8954,0.8957,0.8959,0.9016,0.9025,0.9032,0,0,0,0,0,0,0.9392,0.9327,0.9304,0.9293,0.9261,0.9204,0.9203,0.9173,0.9144,0.914,0.9085,0.9073,0.906,0.9033,0.9025,0.901,0.8981,0.8982,0.9028,0.9036,0.9042,0.9049,0.8975,0,0,0,0,0,0.9405,0.9387,0.9331,0.9327,0.9312,0.9261,0.9246,0.9215,0.9178,0.9164,0.9125,0.909,0.9064,0.9048,0.9022,0.9015,0.9002,0.9017,0.9023,0.9029,0.903,0.9024,0.903,0.8967,0.8967,0.8967,0,0,0.9432,0.9394,0.9385,0.9339,0.931,0.9292,0.9249,0.9232,0.9217,0.916,0.9141,0.9112,0.9069,0.9057,0.9049,0.9033,0.9044,0.9031,0.9036,0.9034,0.9027,0.9033,0.9038,0.8969,0.8968,0.8968,0,0,0.9471,0.9441,0.9434,0.9407,0.9364,0.933,0.9328,0.9276,0.9255,0.9235,0.9192,0.9173,0.913,0.9102,0.9082,0.9111,0.9079,0.9104,0.9137,0.9132,0.9137,0.9141,0.9152,0.9156,0.9105,0.9106,0.9106,0,0.9509,0.9481,0.9435,0.942,0.9401,0.935,0.9343,0.9317,0.9268,0.9255,0.9238,0.9184,0.9151,0.9132,0.9139,0.9125,0.9121,0.911,0.914,0.9144,0.9147,0.9156,0.9161,0.9109,0.9108,0.9108,0.9108,0,0.953,0.9511,0.9511,0.9466,0.9446,0.9436,0.9387,0.9373,0.9344,0.9312,0.9292,0.9251,0.9215,0.9208,0.9179,0.9185,0.9176,0.9151,0.9121,0.9157,0.9165,0.9168,0.9114,0.9112,0.9111,0.9111,0,0,0.9607,0.9537,0.9538,0.9516,0.9466,0.945,0.9437,0.9403,0.9392,0.9359,0.9346,0.9312,0.9288,0.9266,0.9232,0.9229,0.9255,0.9203,0.9201,0.9214,0.9258,0.9278,0.9283,0.9233,0.9234,0.9234,0.9262,0,0.9638,0.9612,0.9571,0.9559,0.954,0.9492,0.948,0.9448,0.9417,0.9397,0.9363,0.9339,0.931,0.9296,0.929,0.9253,0.9263,0.925,0.922,0.922,0.9232,0.9287,0.9307,0.9335,0.9265,0.9265,0.9265,0,0.9671,0.9642,0.9629,0.958,0.9571,0.9561,0.9527,0.9508,0.947,0.9448,0.9424,0.9388,0.9371,0.9345,0.932,0.9313,0.9298,0.9278,0.9278,0.9273,0.9245,0.9283,0.9343,0.9347,0.927,0.9269,0.9269,0,0.9728,0.9686,0.9673,0.9656,0.9599,0.9593,0.9569,0.953,0.9512,0.9482,0.947,0.9439,0.9421,0.9397,0.9353,0.9338,0.9334,0.9303,0.9314,0.9316,0.9315,0.9316,0.9373,0.9306,0.9306,0.9306,0.9306,0,0.9767,0.9761,0.9698,0.969,0.9681,0.9633,0.9625,0.9596,0.9562,0.9547,0.9503,0.9489,0.9433,0.9412,0.9378,0.9363,0.9355,0.9337,0.9328,0.9341,0.9343,0.933,0.9327,0.9307,0.9307,0.9307,0.9307,0,0.983,0.9788,0.977,0.9717,0.9704,0.97,0.9654,0.9644,0.9611,0.9593,0.9585,0.9534,0.9508,0.9462,0.9423,0.94,0.9391,0.9376,0.9405,0.9399,0.9413,0.9412,0.9464,0.9468,0.9399,0.94,0.94,0,0.9857,0.9852,0.9799,0.9786,0.9764,0.9743,0.9726,0.9678,0.9661,0.9618,0.9613,0.9584,0.9558,0.9518,0.9476,0.9446,0.9429,0.9449,0.9424,0.9438,0.9429,0.943,0.9429,0.9455,0.9456,0.9457,0.9458,0,0.9911,0.9891,0.9867,0.9837,0.9818,0.9791,0.9762,0.9754,0.97,0.9683,0.9656,0.9637,0.9597,0.9568,0.9532,0.9505,0.9473,0.9466,0.9467,0.948,0.9497,0.9488,0.942,0.9465,0.9464,0.9464,0.9463,0.9463,0.9957,0.9949,0.9911,0.9887,0.9861,0.9835,0.9823,0.9789,0.9767,0.9731,0.9704,0.968,0.9642,0.959,0.9566,0.9545,0.953,0.9531,0.9532,0.9533,0.9538,0.9501,0.9538,0.9538,0.9538,0.9538,0.9537,0,1.0008,0.9982,0.996,0.9921,0.9902,0.9874,0.9841,0.9826,0.9806,0.9773,0.9749,0.9718,0.9691,0.9647,0.9616,0.9608,0.9592,0.9601,0.9601,0.9596,0.9553,0.9556,0.9615,0.9615,0.9615,0.9615,0.9615,0.9615,1.0033,1.0019,0.9994,0.9967,0.9939,0.9916,0.9899,0.9875,0.9849,0.9818,0.9795,0.9767,0.973,0.9696,0.9669,0.9657,0.9647,0.9661,0.9645,0.9606,0.9599,0.9592,0.9594,0.966,0.966,0.9689,0.9689,0.9689]}]]